Location: Unspecified
(0.0000°N, 0.0000°E)
Time: 06:57:11
(UTC+00:00)

SR - All Passes

Search period start: 27 March 2015 00:00
Search period end: 06 April 2015 00:00
Orbit: 585 x 877 km, 66.7° (Epoch: 25 March)

Date Brightness Start Highest point End Pass type
(mag) Time Alt. Az. Time Alt. Az. Time Alt. Az.
27 Mar - 10:05:07 10° N 10:09:25 45° ENE 10:14:07 10° SE daylight
27 Mar - 22:31:41 10° SSW 22:37:14 65° WNW 22:42:21 10° N night (unlit)
28 Mar - 09:17:55 10° NNE 09:20:42 17° ENE 09:23:51 10° ESE daylight
28 Mar - 10:58:54 10° WNW 11:02:41 24° WSW 11:06:33 10° SSW daylight
28 Mar - 21:43:04 10° S 21:48:30 51° ESE 21:53:33 10° NE night (unlit)
29 Mar - 10:09:19 10° NNW 10:13:50 64° WSW 10:18:45 10° SSE daylight
29 Mar - 20:55:33 10° SSE 20:59:35 21° ESE 21:03:37 10° ENE night (unlit)
29 Mar - 22:37:05 10° SW 22:41:41 26° WNW 22:45:51 10° NNW night (unlit)
30 Mar - 09:20:49 10° N 09:25:08 44° ENE 09:29:51 10° SE daylight
30 Mar - 21:47:26 10° SSW 21:52:58 65° WNW 21:58:03 10° N night (unlit)
31 Mar - 08:33:38 10° NNE 08:36:25 16° ENE 08:39:33 10° ESE daylight
31 Mar - 10:14:34 10° WNW 10:18:23 24° WSW 10:22:21 10° SSW daylight
31 Mar - 20:58:50 10° S 21:04:14 50° ESE 21:09:14 10° NE night (unlit)
01 Apr - 09:24:59 10° NNW 09:29:32 66° WSW 09:34:30 10° SSE daylight
01 Apr - 20:11:21 10° SSE 20:15:18 21° ESE 20:19:17 10° ENE night (unlit)
01 Apr - 21:52:48 10° SW 21:57:24 26° WNW 22:01:34 10° NNW night (unlit)
02 Apr - 08:36:31 10° N 08:40:50 44° ENE 08:45:34 10° SE daylight
02 Apr - 21:03:11 10° SSW 21:08:42 66° WNW 21:13:45 10° NNE night (unlit)
03 Apr - 07:49:21 10° NNE 07:52:07 16° ENE 07:55:16 10° ESE daylight
03 Apr - 09:30:13 10° WNW 09:34:05 25° WSW 09:38:06 10° SSW daylight
03 Apr - 20:14:34 10° S 20:19:56 49° ESE 20:24:54 10° NE visible
04 Apr - 08:40:39 10° NNW 08:45:14 67° WSW 08:50:13 10° SSE daylight
04 Apr - 19:27:07 10° SSE 19:31:00 20° ESE 19:34:54 10° ENE visible
04 Apr - 21:08:32 10° SW 21:13:06 26° WNW 21:17:16 10° NNW visible
05 Apr - 07:52:10 10° N 07:56:31 43° ENE 08:01:17 10° SE daylight
05 Apr - 20:18:53 10° SSW 20:24:23 67° WNW 20:29:25 10° NNE visible
